EW5195 Weather Reports


Display with metric or nautical units.
time (UTC)temp
F
wind
direction
speed
MPH
gust
MPH
rain 1hr
in
rain 24hr
in
rain mn
in
humidity
%
barometer
mb
20210419025804 53 0 0.0 0.0 0.00 0.00 0.00 75 1012.7
20210419025421 54 0 0.0 0.0 0.00 0.00 0.00 76 1012.7
20210419024832 54 0 0.0 0.0 0.00 0.00 0.00 74 1012.8
20210419024132 54 0 0.0 0.0 0.00 0.00 0.00 74 1012.8
20210419023551 54 0 0.0 0.0 0.00 0.00 0.00 74 1012.7
20210419023200 54 0 0.0 0.0 0.00 0.00 0.00 72 1012.8
20210419022900 55 0 0.0 0.0 0.00 0.00 0.00 74 1012.8
20210419022332 55 0 0.0 0.0 0.00 0.00 0.00 72 1012.8
20210419021853 55 0 0.0 1.0 0.00 0.00 0.00 71 1012.8
20210419021052 55 0 0.0 2.0 0.00 0.00 0.00 72 1012.9
20210419020551 56 0 0.0 2.0 0.00 0.00 0.00 71 1012.9
20210419020113 56 0 0.0 3.0 0.00 0.00 0.00 72 1012.9
20210419015821 56 0 0.0 3.0 0.00 0.00 0.00 71 1012.9
20210419015135 57 0 0.0 0.0 0.00 0.00 0.00 71 1013.0
20210419014654 57 0 0.0 2.0 0.00 0.00 0.00 71 1012.9
20210419014051 57 0 0.0 3.0 0.00 0.00 0.00 69 1012.8
20210419013612 57 19 1.0 3.0 0.00 0.00 0.00 69 1012.8
20210419013137 58 25 0.0 2.0 0.00 0.00 0.00 69 1012.7
20210419012813 58 0 0.0 3.0 0.00 0.00 0.00 68 1012.6
20210419012350 58 73 0.0 3.0 0.00 0.00 0.00 67 1012.4
20210419011704 59 0 0.0 2.0 0.00 0.00 0.00 67 1012.3
20210419011051 59 0 0.0 2.0 0.00 0.00 0.00 68 1012.2
20210419010552 59 0 0.0 1.0 0.00 0.00 0.00 67 1012.2
20210419010215 59 0 0.0 4.0 0.00 0.00 0.00 67 1012.2
20210419005829 60 0 0.0 4.0 0.00 0.00 0.00 67 1012.2
20210419005417 60 0 0.0 5.0 0.00 0.00 0.00 66 1012.0
20210419004758 60 23 0.0 5.0 0.00 0.00 0.00 66 1012.1
20210419004056 60 0 0.0 2.0 0.00 0.00 0.00 65 1012.0
20210419003551 61 33 0.0 4.0 0.00 0.00 0.00 65 1011.9
20210419003337 61 0 1.0 4.0 0.00 0.00 0.00 64 1011.9
20210419003019 61 0 0.0 3.0 0.00 0.00 0.00 66 1011.9
20210419002512 61 0 0.0 4.0 0.00 0.00 0.00 66 1011.7
20210419001657 61 88 0.0 4.0 0.00 0.00 0.00 64 1011.7
20210419001051 61 67 0.0 5.0 0.00 0.00 0.00 64 1011.7
20210419000602 61 0 1.0 5.0 0.00 0.00 0.00 64 1011.6
20210419000115 61 136 0.0 3.0 0.00 0.00 0.00 63 1011.5
20210418235759 61 0 0.0 0.0 0.00 0.00 0.00 65 1011.7
20210418235431 62 0 0.0 0.0 0.00 0.00 0.00 65 1011.5
20210418234640 62 0 0.0 0.0 0.00 0.00 0.00 64 1011.6
20210418234111 63 0 0.0 0.0 0.00 0.00 0.00 62 1011.5
20210418233553 63 0 0.0 0.0 0.00 0.00 0.00 62 1011.5
20210418233242 63 0 0.0 0.0 0.00 0.00 0.00 59 1011.5
20210418233053 63 0 0.0 0.0 0.00 0.00 0.00 58 1011.5
20210418232745 64 0 0.0 0.0 0.00 0.00 0.00 58 1011.5
20210418231952 64 0 0.0 0.0 0.00 0.00 0.00 56 1011.5
20210418231116 64 0 0.0 0.0 0.00 0.00 0.00 56 1011.5
20210418230554 65 0 0.0 0.0 0.00 0.00 0.00 57 1011.6
20210418230154 65 0 0.0 0.0 0.00 0.00 0.00 55 1011.6
20210418225851 65 0 0.0 0.0 0.00 0.00 0.00 53 1011.5
20210418225538 65 0 0.0 0.0 0.00 0.00 0.00 54 1011.6
20210418224710 65 0 0.0 0.0 0.00 0.00 0.00 54 1011.7
20210418224051 66 0 0.0 0.0 0.00 0.00 0.00 52 1011.7
20210418223558 66 0 0.0 0.0 0.00 0.00 0.00 52 1011.8
20210418223220 66 0 0.0 0.0 0.00 0.00 0.00 52 1011.6
20210418222907 66 0 0.0 0.0 0.00 0.00 0.00 51 1011.7
20210418222421 66 0 0.0 0.0 0.00 0.00 0.00 50 1011.7
20210418221642 66 0 0.0 0.0 0.00 0.00 0.00 49 1011.6
20210418221058 66 0 0.0 0.0 0.00 0.00 0.00 50 1011.6
20210418220559 66 0 0.0 0.0 0.00 0.00 0.00 50 1011.5
20210418220207 66 0 0.0 0.0 0.00 0.00 0.00 49 1011.5
20210418215838 66 0 0.0 1.0 0.00 0.00 0.00 49 1011.4
20210418215423 66 0 0.0 1.0 0.00 0.00 0.00 48 1011.3
20210418214640 67 0 0.0 2.0 0.00 0.00 0.00 49 1011.2
20210418214051 67 0 0.0 2.0 0.00 0.00 0.00 49 1011.2
20210418213606 67 171 0.0 2.0 0.00 0.00 0.00 47 1011.2
20210418213138 67 0 0.0 2.0 0.00 0.00 0.00 47 1011.1
20210418212855 67 229 0.0 2.0 0.00 0.00 0.00 48 1011.1
20210418212440 67 229 0.0 3.0 0.00 0.00 0.00 48 1011.0
20210418211627 67 0 0.0 3.0 0.00 0.00 0.00 50 1011.0
20210418211136 67 0 0.0 3.0 0.00 0.00 0.00 47 1010.9
20210418210616 67 139 0.0 2.0 0.00 0.00 0.00 48 1010.9
20210418210119 67 0 0.0 2.0 0.00 0.00 0.00 47 1010.9
20210418205936 67 0 0.0 2.0 0.00 0.00 0.00 47 1010.9
20210418205639 67 0 0.0 2.0 0.00 0.00 0.00 47 1010.9
20210418204712 67 0 0.0 2.0 0.00 0.00 0.00 47 1011.1
20210418204054 67 265 0.0 3.0 0.00 0.00 0.00 47 1011.0
20210418203554 68 30 1.0 4.0 0.00 0.00 0.00 48 1011.0
20210418203159 68 0 1.0 4.0 0.00 0.00 0.00 44 1011.1
20210418202856 68 173 0.0 3.0 0.00 0.00 0.00 51 1011.2
20210418202508 67 317 0.0 1.0 0.00 0.00 0.00 49 1011.0
20210418201647 66 0 0.0 2.0 0.00 0.00 0.00 53 1011.0
20210418201056 66 0 0.0 2.0 0.00 0.00 0.00 48 1011.1
20210418200552 66 0 0.0 2.0 0.00 0.00 0.00 51 1011.1
20210418200121 66 0 0.0 2.0 0.00 0.00 0.00 50 1011.0
20210418195839 66 0 0.0 2.0 0.00 0.00 0.00 50 1011.1
20210418195340 66 174 0.0 1.0 0.00 0.00 0.00 50 1011.1
20210418194741 65 0 0.0 2.0 0.00 0.00 0.00 54 1011.2
20210418194056 65 0 0.0 3.0 0.00 0.00 0.00 48 1011.2
20210418193625 66 250 1.0 3.0 0.00 0.00 0.00 47 1011.3
20210418193125 66 141 0.0 3.0 0.00 0.00 0.00 50 1011.3
20210418192936 66 0 0.0 4.0 0.00 0.00 0.00 49 1011.3
20210418192700 66 145 1.0 4.0 0.00 0.00 0.00 48 1011.4
20210418191714 66 157 0.0 4.0 0.00 0.00 0.00 50 1011.6
20210418191105 66 0 0.0 2.0 0.00 0.00 0.00 51 1011.5
20210418190603 66 0 0.0 5.0 0.00 0.00 0.00 49 1011.5
20210418190108 66 0 0.0 5.0 0.00 0.00 0.00 49 1011.6
20210418185750 66 317 0.0 2.0 0.00 0.00 0.00 52 1011.6
20210418185256 65 0 0.0 3.0 0.00 0.00 0.00 50 1011.7
20210418184653 65 0 0.0 3.0 0.00 0.00 0.00 51 1011.7
20210418184100 65 5 0.0 4.0 0.00 0.00 0.00 48 1011.8
20210418183550 66 173 1.0 4.0 0.00 0.00 0.00 49 1011.8
20210418183144 66 0 0.0 2.0 0.00 0.00 0.00 48 1011.8
20210418182840 66 0 0.0 0.0 0.00 0.00 0.00 51 1011.8
20210418182257 66 0 0.0 2.0 0.00 0.00 0.00 50 1011.8
20210418181621 66 0 0.0 4.0 0.00 0.00 0.00 52 1011.9
20210418181059 66 225 1.0 6.0 0.00 0.00 0.00 48 1012.0
20210418180552 66 52 1.0 6.0 0.00 0.00 0.00 52 1012.0
20210418180142 65 180 0.0 4.0 0.00 0.00 0.00 52 1011.9
20210418175821 65 0 0.0 4.0 0.00 0.00 0.00 49 1012.0
20210418175312 65 96 0.0 3.0 0.00 0.00 0.00 49 1012.0
20210418174635 65 0 0.0 3.0 0.00 0.00 0.00 52 1012.2
20210418174124 65 349 0.0 3.0 0.00 0.00 0.00 51 1012.2
20210418173601 65 0 0.0 2.0 0.00 0.00 0.00 54 1012.2
20210418173209 65 0 0.0 4.0 0.00 0.00 0.00 50 1012.3
20210418172926 66 344 0.0 4.0 0.00 0.00 0.00 51 1012.3
20210418172525 66 264 1.0 4.0 0.00 0.00 0.00 53 1012.4
20210418171637 66 0 0.0 4.0 0.00 0.00 0.00 50 1012.4
20210418171050 66 0 1.0 6.0 0.00 0.00 0.00 49 1012.4
20210418170553 66 0 1.0 6.0 0.00 0.00 0.00 49 1012.4
20210418170145 65 306 0.0 5.0 0.00 0.00 0.00 52 1012.5
20210418165750 64 352 2.0 5.0 0.00 0.00 0.00 53 1012.6
20210418165154 64 342 1.0 5.0 0.00 0.00 0.00 52 1012.6
20210418164629 64 329 2.0 5.0 0.00 0.00 0.00 51 1012.7
20210418164114 64 39 1.0 4.0 0.00 0.00 0.00 51 1012.7
20210418163625 64 352 0.0 4.0 0.00 0.00 0.00 54 1012.8
20210418163259 64 0 0.0 7.0 0.00 0.00 0.00 53 1012.8
20210418163033 63 295 2.0 7.0 0.00 0.00 0.00 52 1012.9
20210418162702 63 339 2.0 6.0 0.00 0.00 0.00 54 1013.0
20210418161715 63 5 1.0 4.0 0.00 0.00 0.00 50 1013.0
20210418161111 64 349 1.0 6.0 0.00 0.00 0.00 51 1013.0
20210418160600 64 321 0.0 6.0 0.00 0.00 0.00 53 1013.0
20210418160118 64 344 2.0 4.0 0.00 0.00 0.00 50 1012.9
20210418155822 64 0 0.0 2.0 0.00 0.00 0.00 52 1013.1
20210418155251 63 321 0.0 2.0 0.00 0.00 0.00 54 1013.1
20210418154637 63 0 0.0 3.0 0.00 0.00 0.00 53 1013.1
20210418154052 63 0 1.0 5.0 0.00 0.00 0.00 53 1013.2
20210418153553 63 342 1.0 6.0 0.00 0.00 0.00 52 1013.2
20210418153206 63 348 3.0 6.0 0.00 0.00 0.00 52 1013.1
20210418152726 63 0 0.0 3.0 0.00 0.00 0.00 55 1013.2
20210418152249 63 309 0.0 3.0 0.00 0.00 0.00 55 1013.4
20210418151603 62 0 1.0 4.0 0.00 0.00 0.00 57 1013.3
20210418151052 62 0 1.0 4.0 0.00 0.00 0.00 58 1013.5
20210418150619 61 136 0.0 4.0 0.00 0.00 0.00 59 1013.5
20210418150138 61 180 0.0 4.0 0.00 0.00 0.00 62 1013.6
20210418145758 61 71 1.0 5.0 0.00 0.00 0.00 59 1013.6
20210418145431 61 192 2.0 5.0 0.00 0.00 0.00 59 1013.7
20210418144652 62 224 0.0 2.0 0.00 0.00 0.00 61 1013.6
20210418144057 61 0 0.0 3.0 0.00 0.00 0.00 61 1013.6
20210418143555 61 39 1.0 3.0 0.00 0.00 0.00 59 1013.6
20210418143132 61 0 0.0 3.0 0.00 0.00 0.00 59 1013.7
20210418142836 61 188 0.0 3.0 0.00 0.00 0.00 59 1013.8
20210418142440 61 257 1.0 3.0 0.00 0.00 0.00 60 1013.7
20210418141723 61 0 0.0 2.0 0.00 0.00 0.00 65 1013.8
20210418141056 61 0 0.0 2.0 0.00 0.00 0.00 63 1013.7
20210418140555 60 0 0.0 2.0 0.00 0.00 0.00 67 1013.9
20210418140418 60 0 0.0 2.0 0.00 0.00 0.00 64 1013.9
20210418135909 60 0 0.0 2.0 0.00 0.00 0.00 68 1014.0
20210418135454 59 0 0.0 3.0 0.00 0.00 0.00 68 1014.0
20210418134819 59 0 0.0 3.0 0.00 0.00 0.00 68 1013.9
20210418134055 59 0 0.0 2.0 0.00 0.00 0.00 71 1013.8
20210418133556 59 0 0.0 2.0 0.00 0.00 0.00 68 1013.9
20210418133150 59 0 0.0 0.0 0.00 0.00 0.00 69 1013.9
20210418132755 58 0 0.0 1.0 0.00 0.00 0.00 71 1013.9
20210418132226 57 0 0.0 1.0 0.00 0.00 0.00 72 1013.9
20210418131628 56 0 0.0 2.0 0.00 0.00 0.00 73 1014.0
20210418131127 55 0 0.0 2.0 0.00 0.00 0.00 75 1013.9
20210418130549 55 0 0.0 1.0 0.00 0.00 0.00 76 1014.0
20210418130256 54 0 0.0 2.0 0.00 0.00 0.00 78 1013.9
20210418130102 54 0 0.0 2.0 0.00 0.00 0.00 78 1013.9
20210418125831 53 0 0.0 2.0 0.00 0.00 0.00 79 1013.9
20210418124704 53 0 0.0 2.0 0.00 0.00 0.00 80 1014.0
20210418124148 53 0 1.0 2.0 0.00 0.00 0.00 80 1014.0
20210418123935 52 346 0.0 2.0 0.00 0.00 0.00 82 1013.9
20210418123655 52 0 0.0 0.0 0.00 0.00 0.00 84 1014.0
20210418123216 51 0 0.0 0.0 0.00 0.00 0.00 88 1013.8
20210418122718 51 0 0.0 0.0 0.00 0.00 0.00 89 1013.8
20210418121640 50 0 0.0 0.0 0.00 0.00 0.00 91 1013.6
20210418121147 49 0 0.0 1.0 0.00 0.00 0.00 92 1013.8
20210418120653 49 0 0.0 1.0 0.00 0.00 0.00 94 1013.8
20210418120343 48 0 0.0 0.0 0.00 0.00 0.00 94 1013.7
20210418115943 47 0 0.0 0.0 0.00 0.00 0.00 94 1013.7
20210418115600 46 0 0.0 0.0 0.00 0.00 0.00 94 1013.7
20210418114711 45 0 0.0 0.0 0.00 0.00 0.00 93 1013.7
20210418114052 44 0 0.0 0.0 0.00 0.00 0.00 93 1013.7
20210418113600 44 0 0.0 0.0 0.00 0.00 0.00 92 1013.6
20210418113137 44 0 0.0 0.0 0.00 0.00 0.00 92 1013.4
20210418112944 44 0 0.0 0.0 0.00 0.00 0.00 92 1013.4
20210418112555 43 0 0.0 0.0 0.00 0.00 0.00 92 1013.3
20210418111636 43 0 0.0 0.0 0.00 0.00 0.00 91 1013.2
20210418111053 43 0 0.0 0.0 0.00 0.00 0.00 91 1013.1
20210418110550 43 0 0.0 0.0 0.00 0.00 0.00 91 1013.1
20210418110147 43 0 0.0 0.0 0.00 0.00 0.00 91 1013.0
20210418105936 43 0 0.0 0.0 0.00 0.00 0.00 91 1012.9
20210418105433 43 0 0.0 0.0 0.00 0.00 0.00 91 1012.9
20210418104627 43 0 0.0 0.0 0.00 0.00 0.00 90 1012.8
20210418104112 43 0 0.0 0.0 0.00 0.00 0.00 90 1012.9
20210418103625 43 0 0.0 0.0 0.00 0.00 0.00 91 1012.8
20210418103154 43 0 0.0 0.0 0.00 0.00 0.00 90 1012.7
20210418102905 43 0 0.0 0.0 0.00 0.00 0.00 90 1012.7
20210418102628 43 0 0.0 0.0 0.00 0.00 0.00 90 1012.5
20210418101557 43 0 0.0 0.0 0.00 0.00 0.00 90 1012.5
20210418101058 43 0 0.0 0.0 0.00 0.00 0.00 90 1012.5
20210418100623 43 0 0.0 0.0 0.00 0.00 0.00 90 1012.4
20210418100221 43 0 0.0 0.0 0.00 0.00 0.00 89 1012.4
20210418095937 44 0 0.0 0.0 0.00 0.00 0.00 89 1012.2
20210418095651 44 0 0.0 0.0 0.00 0.00 0.00 89 1012.3
20210418094615 44 0 0.0 0.0 0.00 0.00 0.00 89 1012.3
20210418094108 44 0 0.0 0.0 0.00 0.00 0.00 89 1012.3
20210418093601 44 0 0.0 0.0 0.00 0.00 0.00 89 1012.2
20210418093134 44 0 0.0 0.0 0.00 0.00 0.00 88 1012.3
20210418092752 45 0 0.0 0.0 0.00 0.00 0.00 89 1012.2
20210418092410 45 0 0.0 0.0 0.00 0.00 0.00 88 1012.2
20210418091646 45 0 0.0 0.0 0.00 0.00 0.00 88 1012.2
20210418091052 45 0 0.0 0.0 0.00 0.00 0.00 89 1012.2
20210418090610 45 0 0.0 0.0 0.00 0.00 0.00 88 1012.1
20210418090125 45 0 0.0 0.0 0.00 0.00 0.00 88 1012.2
20210418085929 46 0 0.0 0.0 0.00 0.00 0.00 87 1012.1
20210418085350 46 0 0.0 0.0 0.00 0.00 0.00 87 1012.1
20210418084656 46 0 0.0 0.0 0.00 0.00 0.00 87 1012.0
20210418084055 46 0 0.0 0.0 0.00 0.00 0.00 86 1012.1
20210418083549 47 0 0.0 0.0 0.00 0.00 0.00 86 1012.2
20210418083305 47 0 0.0 0.0 0.00 0.00 0.00 86 1012.0
20210418082821 47 0 0.0 0.0 0.00 0.00 0.00 86 1011.9
20210418082203 48 0 0.0 0.0 0.00 0.00 0.00 85 1012.0
20210418081739 48 0 0.0 0.0 0.00 0.00 0.00 84 1012.1
20210418081109 48 0 0.0 0.0 0.00 0.00 0.00 84 1011.9
20210418080557 49 0 0.0 0.0 0.00 0.00 0.00 84 1012.0
20210418080225 49 0 0.0 0.0 0.00 0.00 0.00 84 1012.0
20210418080058 49 0 0.0 0.0 0.00 0.00 0.00 83 1011.9
20210418075429 49 0 0.0 0.0 0.00 0.00 0.00 83 1011.8
20210418074601 50 0 0.0 0.0 0.00 0.00 0.00 83 1011.7
20210418074049 50 0 0.0 0.0 0.00 0.00 0.00 83 1011.6
20210418073601 50 0 0.0 0.0 0.00 0.00 0.00 83 1011.8
20210418073114 50 0 0.0 0.0 0.00 0.00 0.00 82 1011.7
20210418072728 51 0 0.0 0.0 0.00 0.00 0.00 82 1011.7
20210418072241 51 0 0.0 0.0 0.00 0.00 0.00 83 1011.7
20210418071655 51 0 0.0 0.0 0.00 0.00 0.00 83 1011.7
20210418071100 51 0 0.0 0.0 0.00 0.00 0.00 83 1011.9
20210418070609 51 0 0.0 0.0 0.00 0.00 0.00 82 1011.8
20210418070131 51 0 0.0 0.0 0.00 0.00 0.00 83 1011.8
20210418065818 51 0 0.0 0.0 0.00 0.00 0.00 82 1011.8
20210418065421 50 0 0.0 1.0 0.00 0.00 0.00 82 1011.6
20210418064704 51 0 0.0 1.0 0.00 0.00 0.00 82 1011.5
20210418064059 51 0 0.0 0.0 0.00 0.00 0.00 82 1011.6
20210418063552 51 0 0.0 0.0 0.00 0.00 0.00 82 1011.4
20210418063245 51 0 0.0 0.0 0.00 0.00 0.00 81 1011.4
20210418062759 51 0 0.0 0.0 0.00 0.00 0.00 81 1011.5
20210418062326 51 0 0.0 0.0 0.00 0.00 0.00 81 1011.6
20210418061645 51 0 0.0 1.0 0.00 0.00 0.00 80 1011.6
20210418061050 51 0 0.0 1.0 0.00 0.00 0.00 81 1011.7
20210418060551 51 0 0.0 0.0 0.00 0.00 0.00 81 1011.7
20210418060229 51 0 0.0 0.0 0.00 0.00 0.00 80 1011.6
20210418060021 51 0 0.0 0.0 0.00 0.00 0.00 80 1011.7
20210418055459 51 0 0.0 0.0 0.00 0.00 0.00 81 1011.7
20210418054641 51 0 0.0 0.0 0.00 0.00 0.00 81 1011.8
20210418054051 51 0 0.0 0.0 0.00 0.00 0.00 80 1011.9
20210418053553 51 0 0.0 0.0 0.00 0.00 0.00 80 1011.9
20210418053201 51 0 0.0 0.0 0.00 0.00 0.00 79 1011.9
20210418052901 51 0 0.0 0.0 0.00 0.00 0.00 78 1012.0
20210418052458 52 0 0.0 0.0 0.00 0.00 0.00 78 1011.9
20210418051644 52 0 0.0 0.0 0.00 0.00 0.00 78 1011.9
20210418051050 52 0 0.0 0.0 0.00 0.00 0.00 77 1011.9
20210418050622 52 0 0.0 0.0 0.00 0.00 0.00 76 1011.8
20210418050216 52 0 0.0 0.0 0.00 0.00 0.00 77 1011.9
20210418045903 52 0 0.0 0.0 0.00 0.00 0.00 77 1011.8
20210418045255 52 0 0.0 0.0 0.00 0.00 0.00 76 1011.8
20210418044614 52 0 0.0 0.0 0.00 0.00 0.00 76 1011.8
20210418044124 52 0 0.0 0.0 0.00 0.00 0.00 76 1011.9
20210418043554 53 0 0.0 0.0 0.00 0.00 0.00 75 1011.9
20210418043242 53 0 0.0 0.0 0.00 0.00 0.00 75 1011.9
20210418042851 53 0 0.0 1.0 0.00 0.00 0.00 74 1011.9
20210418042516 53 0 0.0 1.0 0.00 0.00 0.00 73 1011.9
20210418041657 54 0 0.0 0.0 0.00 0.00 0.00 73 1012.0
20210418041051 54 0 0.0 0.0 0.00 0.00 0.00 73 1012.0
20210418040551 54 0 0.0 0.0 0.00 0.00 0.00 72 1012.1
20210418040226 54 0 0.0 0.0 0.00 0.00 0.00 71 1012.3
20210418035828 54 0 0.0 0.0 0.00 0.00 0.00 72 1012.2
20210418035350 54 0 0.0 0.0 0.00 0.00 0.00 72 1012.3
20210418034759 54 0 0.0 1.0 0.00 0.00 0.00 72 1012.2
20210418034052 54 0 0.0 1.0 0.00 0.00 0.00 72 1012.1
20210418033559 55 0 0.0 0.0 0.00 0.00 0.00 72 1012.3
20210418033230 55 0 0.0 0.0 0.00 0.00 0.00 71 1012.3
20210418032923 55 0 0.0 0.0 0.00 0.00 0.00 71 1012.3
20210418032610 55 0 0.0 2.0 0.00 0.00 0.00 71 1012.2
20210418031615 55 0 0.0 2.0 0.00 0.00 0.00 71 1012.2
20210418031052 55 0 0.0 1.0 0.00 0.00 0.00 70 1012.3
20210418030624 55 0 0.0 1.0 0.00 0.00 0.00 71 1012.3
20210418030305 55 0 0.0 1.0 0.00 0.00 0.00 70 1012.2